Temperature
20 21 20 20 20 19 19 19 19 19 19 19 19 19 19 19 19 19 19 19 18 18 18 18 18 18 19 19 18 18 18 18 18 18 18 18 18 17 17 17 17 17 17
21 21 20 20 20 20 19 19 19 19 19 19 19 19 19 19 19 18 18 18 18 18 18 18 18 18 18 18 18 18 18 18 18 18 18 17 17 17 17 17 17 17 17
21 21 20 20 20 20 19 19 19 19 19 19 19 19 19 19 18 18 18 18 18 18 18 18 18 18 18 18 18 18 18 18 18 17 17 17 17 17 17 17 17 17 17
21 21 20 20 20 19 19 19 19 19 19 19 19 19 19 18 18 18 18 18 18 18 18 18 18 18 18 18 18 18 18 17 17 17 17 17 17 17 17 17 17 17 17
20 20 21 20 20 19 19 19 19 19 19 19 19 19 18 18 18 18 18 18 18 18 18 18 18 18 18 18 18 18 17 17 17 17 17 17 17 17 17 17 17 17 17
20 21 21 20 20 19 19 19 19 19 18 18 18 18 18 18 18 18 18 18 18 18 18 18 18 18 18 18 18 18 17 17 17 17 17 17 17 17 17 17 17 17 17
20 21 21 20 20 19 19 19 19 19 19 18 18 18 18 18 18 18 18 18 18 18 18 18 18 18 18 18 18 18 17 17 17 17 17 17 17 17 17 17 17 17 17
21 21 21 20 20 20 19 19 19 19 19 19 18 18 18 18 18 18 18 18 18 18 18 18 18 18 18 18 18 18 17 17 17 17 17 17 17 17 17 17 17 17 17
21 21 21 20 20 20 19 19 19 19 19 19 18 18 18 18 18 18 18 18 18 18 18 18 18 18 18 18 18 18 18 17 17 17 17 17 17 17 17 17 17 17 17
21 20 20 20 20 20 19 19 19 19 19 19 18 18 18 18 18 18 18 18 18 18 18 18 18 18 18 18 18 18 18 18 17 17 18 18 17 17 17 17 17 17 17
21 20 20 19 19 19 19 19 19 19 19 19 18 18 18 18 18 18 18 18 18 18 18 18 18 18 18 18 18 18 18 18 17 17 18 17 17 17 17 17 17 17 17
21 21 20 19 19 19 19 19 19 18 19 18 18 18 18 18 18 18 18 18 18 18 18 18 18 18 18 18 18 18 18 18 18 18 18 18 17 17 17 17 17 17 17
21 21 20 20 20 19 19 19 18 18 19 18 18 18 18 18 18 18 18 18 18 18 18 18 18 18 18 18 18 18 18 18 18 18 18 18 18 17 17 17 17 17 17
22 21 21 20 20 20 19 19 19 19 19 18 18 18 18 18 18 18 18 18 18 18 18 18 18 18 18 18 18 18 18 18 18 18 18 18 18 17 17 17 17 17 17
21 21 21 20 20 20 20 19 19 19 19 19 19 18 18 18 18 18 18 18 18 18 18 18 18 18 18 18 18 18 18 18 18 18 18 18 18 17 17 17 17 17 17
21 21 20 20 20 20 20 20 19 19 19 19 19 19 18 18 18 18 18 18 18 18 18 18 18 18 18 18 18 18 18 18 18 18 18 18 18 17 17 17 17 17 17
21 21 20 20 20 20 20 20 19 19 19 19 19 19 19 18 18 18 18 18 18 18 18 18 18 18 18 18 18 18 18 18 17 17 17 17 17 17 17 17 17 17 17
21 21 20 20 20 20 19 20 19 19 19 19 19 19 19 18 18 18 18 18 18 18 18 18 18 18 18 18 18 18 18 18 17 17 17 17 17 17 17 17 17 17 17
21 21 20 20 20 20 19 20 19 19 19 19 19 19 19 19 18 19 18 18 18 18 18 18 18 18 18 18 18 18 18 18 18 17 17 17 17 17 17 17 17 17 17
21 21 20 20 20 20 19 20 19 19 19 19 19 19 19 19 19 19 18 18 18 18 18 18 18 18 18 18 18 18 18 18 18 18 17 17 17 17 17 17 17 17 17
21 20 20 20 19 20 19 19 19 19 19 19 19 19 19 19 19 19 18 18 18 18 18 18 18 18 18 18 18 18 18 18 18 18 18 17 17 17 17 17 17 17 17
21 20 20 20 20 20 20 20 19 19 19 19 19 19 19 19 19 19 19 18 18 18 18 18 18 18 18 18 18 18 18 18 18 18 18 18 17 17 17 17 17 17 17
21 20 20 20 20 20 20 19 19 19 19 19 19 19 19 19 19 18 19 18 18 18 18 18 18 18 18 18 18 18 18 18 18 18 18 18 18 18 17 17 17 17 17
21 20 20 20 20 19 19 19 19 19 19 19 19 19 19 19 19 19 18 18 18 18 18 18 18 18 18 18 18 18 18 18 18 18 18 18 18 18 18 17 17 17 17
21 20 20 20 19 19 19 19 19 19 19 19 19 19 18 18 18 18 18 18 18 18 18 18 18 18 18 18 18 18 18 18 18 18 18 18 18 18 18 18 18 17 17
21 21 20 20 20 19 19 19 19 19 19 19 19 18 18 18 18 18 18 18 18 18 18 18 18 18 18 18 18 18 18 18 18 18 18 18 18 18 18 18 18 18 17
Wind_Speed
16 17 17 17 17 17 18 18 18 18 18 18 19 19 19 19 19 20 20 20 19 19 19 19 19 19 20 20 20 19 20 20 20 21 20 20 18 18 17 18 18 17 19
20 19 18 18 18 18 18 18 17 18 18 17 18 18 18 18 18 19 19 19 19 19 19 19 19 19 19 19 18 18 18 18 19 20 20 18 18 17 16 17 18 16 18
21 19 19 18 18 17 18 18 17 17 17 17 17 17 18 18 18 18 19 19 19 19 19 19 19 19 18 18 17 16 16 17 17 18 18 17 17 18 18 19 19 18 18
21 19 18 18 18 18 17 17 17 17 17 16 16 16 17 17 17 18 18 18 19 19 18 18 18 18 17 16 14 13 13 13 13 13 14 16 16 17 18 18 17 17 17
20 20 20 19 18 18 17 17 17 16 17 16 16 16 17 17 17 18 18 18 18 18 18 17 17 16 15 14 12 10 9 8 9 12 17 18 16 16 17 17 17 17 17
21 20 20 19 18 18 17 17 17 16 16 16 16 16 16 16 16 17 17 18 18 17 17 16 16 15 14 11 9 7 6 5 8 14 16 17 15 15 16 16 16 17 17
21 20 20 19 18 17 17 16 16 16 16 16 16 16 16 16 16 16 17 17 17 16 16 15 15 14 12 10 7 4 3 4 10 15 16 16 15 16 16 16 16 16 16
21 20 19 19 18 17 16 16 15 15 15 15 15 16 16 16 16 16 16 16 16 15 15 15 14 13 11 8 5 3 3 4 12 16 16 15 15 16 15 15 15 16 16
20 19 17 18 17 16 16 15 15 15 15 14 15 15 15 15 15 15 16 16 15 15 14 14 13 11 9 6 3 2 3 4 11 14 16 14 15 15 15 15 15 15 15
18 18 17 16 16 15 15 15 15 15 14 14 14 15 15 15 15 15 15 15 14 14 13 13 12 10 8 5 2 1 2 3 11 15 14 14 15 15 14 14 14 14 14
17 16 16 16 15 15 16 15 15 14 14 14 13 14 14 13 14 13 15 14 14 13 12 12 11 10 8 5 3 2 2 2 12 13 13 15 15 14 13 13 13 13 13
16 16 14 14 14 14 14 14 13 12 13 12 12 12 10 9 12 13 15 14 13 12 11 10 10 10 8 7 6 5 4 6 12 13 13 15 14 13 13 12 12 12 12
14 14 15 12 10 11 10 11 9 10 11 11 12 11 9 10 11 13 11 11 10 11 9 10 9 8 7 5 5 5 3 7 10 13 13 15 14 13 12 12 12 11 11
13 13 14 12 8 8 9 7 7 8 8 8 10 10 9 5 6 8 7 10 9 8 7 8 6 5 4 3 3 4 5 7 12 13 13 14 13 12 11 11 10 10 10
12 12 12 11 9 6 6 5 6 6 8 9 9 8 9 5 4 5 4 6 8 8 6 3 3 4 3 3 3 5 5 8 13 13 12 13 12 11 11 10 10 10 9
14 13 13 11 10 7 6 3 3 5 7 9 9 9 9 8 6 5 4 3 5 7 6 4 5 4 2 2 2 3 4 7 11 14 13 12 12 11 10 10 10 9 9
14 13 12 11 10 8 7 5 4 5 8 6 7 10 8 9 9 6 4 3 4 7 7 4 4 4 3 3 2 3 4 4 8 12 14 13 12 11 11 10 10 9 9
14 13 13 13 12 10 7 5 3 5 6 6 8 9 8 9 10 7 4 4 6 6 5 3 2 3 2 3 3 2 3 3 5 8 11 13 13 12 12 12 11 10 10
14 14 13 11 13 11 9 6 4 3 4 6 7 8 9 9 10 6 4 4 7 5 4 5 4 3 3 3 3 3 3 3 3 5 6 9 12 13 13 14 13 12 11
14 14 12 10 12 11 8 6 4 4 4 4 6 7 10 9 9 7 4 6 6 4 3 2 5 3 2 3 3 4 3 3 3 3 4 6 10 12 14 14 13 12 13
14 14 14 12 12 10 8 8 7 6 6 5 5 9 10 10 10 6 4 6 4 4 5 5 4 4 2 2 1 2 3 4 4 4 4 4 6 9 12 14 14 13 12
15 15 14 13 13 12 9 7 7 6 6 6 4 7 10 9 10 9 5 6 5 4 5 4 4 3 3 4 2 2 2 2 3 6 5 5 5 6 8 12 13 13 13
16 16 15 13 13 13 11 8 7 5 5 5 6 6 7 9 10 8 8 6 6 6 6 6 5 5 4 3 3 2 3 3 2 2 5 5 5 5 5 8 12 13 14
16 16 13 14 13 12 11 11 11 9 8 7 6 6 8 9 9 9 8 7 6 5 6 7 7 5 4 3 3 3 2 2 2 1 2 3 6 6 5 7 8 12 14
16 16 14 14 13 13 12 11 10 9 7 6 6 7 7 7 8 9 8 7 6 6 6 7 6 6 5 5 3 3 3 3 3 3 3 3 4 5 6 5 5 9 13
15 15 15 14 13 13 13 12 11 10 8 8 8 8 7 7 7 9 9 7 7 6 6 6 6 7 5 5 4 3 3 3 3 3 3 4 4 5 6 5 5 6 11
Wind_Direction
115 115 112 109 108 105 104 104 103 101 97 95 94 94 94 95 95 96 98 99 100 100 99 97 96 94 93 92 93 96 98 99 100 100 100 98 98 100 102 105 101 98 99
118 117 114 111 110 109 108 107 107 106 103 101 99 97 97 98 99 99 100 100 101 101 99 98 97 97 97 97 98 100 103 105 107 107 104 97 95 94 97 98 98 102 102
118 120 116 113 112 111 111 110 109 110 107 105 103 101 100 99 100 102 102 101 102 102 101 101 101 100 100 100 102 106 109 112 118 119 113 103 96 94 96 98 101 102 101
122 124 118 116 114 114 113 111 110 111 110 107 104 103 102 102 102 103 103 104 105 105 103 103 103 104 104 105 106 110 115 122 128 124 107 103 100 99 100 102 103 103 102
121 119 120 119 117 116 115 114 112 112 113 112 109 107 105 105 105 105 104 104 105 106 105 105 106 106 107 107 108 110 116 125 124 103 94 95 97 103 104 105 106 105 104
122 121 123 122 120 119 118 116 116 116 116 116 114 112 110 109 109 107 107 105 105 105 105 106 107 107 108 110 111 109 110 111 108 102 102 102 104 106 107 106 106 106 104
123 124 127 126 124 123 122 120 119 118 118 118 118 116 113 112 111 110 110 109 108 108 108 109 109 109 109 110 109 100 91 64 101 99 98 100 105 107 106 107 106 107 107
125 126 128 128 128 126 125 124 123 122 122 122 121 119 117 116 114 113 113 112 112 112 111 110 111 112 112 111 97 61 44 58 106 104 101 103 109 108 108 109 108 109 110
124 128 134 135 132 130 128 127 126 126 126 127 126 125 123 120 119 117 116 115 114 114 114 114 114 115 115 114 99 39 25 48 101 111 109 110 114 113 113 113 112 112 112
130 136 139 141 140 140 135 131 129 129 132 133 134 133 131 129 127 125 121 120 118 117 117 118 119 121 126 134 141 29 6 15 109 103 107 117 119 117 117 118 117 116 114
136 140 142 143 150 148 143 139 137 137 138 140 143 143 145 143 137 138 123 126 125 125 125 126 128 134 143 161 194 246 276 133 100 98 107 122 124 123 122 122 122 120 120
141 144 144 148 156 152 144 145 151 150 152 158 148 157 165 143 137 127 130 133 135 136 137 141 146 155 169 170 192 220 237 135 110 109 117 128 128 128 128 127 128 126 125
148 149 145 153 157 147 141 158 160 150 156 160 153 159 154 141 135 132 138 141 149 157 160 155 172 188 189 177 175 189 171 104 107 114 126 131 131 132 133 134 135 135 134
156 152 147 150 147 144 148 157 153 146 157 153 154 165 151 152 139 141 149 157 163 167 166 169 180 177 167 151 138 119 109 104 109 116 132 136 136 137 138 141 142 143 143
160 154 145 146 144 141 132 157 159 149 154 147 156 166 152 150 140 133 145 158 162 151 156 169 139 123 125 121 111 100 105 107 119 120 134 144 143 145 146 149 151 151 152
167 158 147 151 143 138 137 164 142 143 140 148 157 162 166 149 134 134 143 161 152 144 150 147 135 129 130 93 91 104 104 109 121 131 142 149 153 156 158 159 161 163 164
168 158 152 155 148 149 154 177 162 150 151 151 148 152 165 149 142 151 155 171 145 135 131 129 133 137 156 145 128 116 102 102 121 135 146 154 161 168 170 170 172 175 177
166 158 162 168 158 160 165 182 177 166 154 146 146 154 169 152 154 163 159 164 145 142 144 141 164 155 145 141 155 155 124 123 126 143 153 161 166 170 177 181 181 184 188
164 160 166 165 161 165 168 173 190 165 145 146 152 159 167 163 165 176 159 148 158 157 167 174 157 150 150 162 171 157 152 150 156 170 164 166 168 165 172 184 188 191 196
163 162 167 167 163 165 168 168 188 174 160 166 163 160 163 169 174 181 161 158 174 165 162 135 128 130 149 199 208 154 157 151 177 168 190 176 173 175 176 178 185 196 203
166 166 170 174 168 167 174 177 183 182 177 182 177 159 166 175 177 186 174 159 183 171 163 160 153 163 191 207 180 138 163 184 180 178 201 185 185 184 175 175 185 189 193
170 171 173 177 175 177 178 180 184 181 182 183 181 158 172 178 178 187 192 173 182 172 171 173 170 174 201 200 190 159 164 207 217 201 186 195 190 185 185 188 190 188 192
178 178 182 182 179 182 177 179 187 176 183 184 177 170 182 185 187 191 187 190 180 184 178 185 184 192 205 208 203 177 174 200 208 223 204 193 182 186 196 193 191 192 193
184 183 180 179 180 182 181 186 188 186 191 193 184 180 185 191 192 194 191 191 190 198 177 190 191 196 200 217 218 218 206 167 173 202 232 199 194 199 204 209 199 190 193
186 181 179 177 181 183 188 192 193 194 192 187 185 183 187 193 197 198 192 189 198 206 195 198 177 193 198 216 219 208 209 202 217 192 207 213 216 209 206 212 193 188 191
180 177 177 176 181 185 189 195 200 196 190 190 189 187 191 194 201 202 196 194 199 206 203 197 185 193 211 222 234 228 206 204 218 217 207 208 213 217 203 200 196 189 192
Height
1501 1502 1504 1506 1507 1509 1510 1511 1513 1514 1516 1517 1518 1520 1521 1522 1524 1525 1527 1528 1530 1532 1534 1535 1536 1538 1539 1541 1542 1543 1544 1546 1547 1548 1550 1551 1552 1554 1555 1556 1557 1558 1559
1501 1503 1506 1508 1509 1511 1513 1514 1516 1517 1519 1520 1522 1523 1524 1526 1527 1529 1530 1532 1533 1535 1536 1538 1539 1540 1542 1543 1544 1546 1547 1549 1550 1551 1552 1553 1555 1556 1557 1559 1560 1561 1562
1502 1505 1507 1509 1511 1513 1515 1517 1518 1520 1521 1523 1525 1526 1528 1529 1530 1532 1533 1535 1536 1538 1539 1540 1542 1543 1544 1546 1547 1548 1550 1551 1553 1554 1555 1556 1557 1559 1560 1561 1562 1563 1565
1504 1506 1509 1511 1513 1515 1517 1519 1521 1522 1524 1526 1528 1529 1531 1532 1533 1535 1536 1538 1539 1540 1542 1543 1545 1546 1547 1548 1550 1551 1553 1554 1555 1557 1558 1559 1560 1561 1562 1564 1565 1566 1567
1506 1508 1510 1513 1515 1517 1519 1521 1523 1525 1527 1529 1530 1532 1533 1535 1536 1538 1539 1540 1542 1543 1544 1546 1547 1548 1550 1551 1553 1554 1556 1557 1559 1560 1561 1562 1562 1564 1565 1566 1567 1568 1569
1508 1510 1512 1515 1517 1519 1521 1524 1526 1528 1529 1531 1533 1534 1536 1537 1539 1541 1542 1543 1544 1546 1547 1549 1550 1551 1552 1554 1556 1557 1558 1560 1561 1563 1563 1564 1565 1566 1567 1568 1569 1570 1571
1509 1511 1514 1517 1519 1521 1524 1526 1528 1530 1532 1533 1535 1537 1538 1540 1542 1543 1544 1546 1547 1548 1550 1551 1552 1554 1555 1557 1558 1560 1561 1562 1564 1564 1565 1566 1567 1568 1569 1570 1571 1573 1574
1511 1513 1516 1518 1521 1523 1526 1528 1530 1532 1534 1536 1537 1539 1541 1542 1544 1545 1547 1548 1550 1551 1552 1554 1555 1556 1558 1559 1561 1562 1563 1564 1566 1567 1567 1568 1569 1570 1571 1572 1574 1575 1576
1512 1514 1517 1520 1522 1525 1527 1530 1532 1533 1535 1537 1539 1541 1543 1544 1546 1548 1549 1551 1552 1553 1555 1556 1557 1559 1560 1562 1563 1564 1565 1567 1568 1569 1569 1570 1571 1572 1573 1574 1576 1577 1578
1514 1516 1519 1521 1524 1526 1529 1531 1533 1535 1537 1539 1541 1543 1545 1546 1548 1550 1551 1553 1554 1555 1557 1558 1560 1561 1562 1564 1565 1567 1568 1569 1570 1571 1571 1572 1573 1574 1575 1576 1578 1579 1580
1516 1518 1521 1523 1526 1528 1530 1533 1535 1537 1539 1541 1543 1545 1546 1548 1550 1551 1553 1555 1556 1558 1559 1561 1562 1563 1565 1566 1568 1569 1570 1571 1572 1572 1573 1574 1575 1576 1577 1578 1579 1581 1582
1516 1520 1522 1525 1528 1531 1533 1534 1536 1539 1540 1543 1545 1546 1548 1550 1552 1554 1555 1556 1558 1560 1561 1563 1564 1566 1567 1569 1570 1570 1571 1573 1573 1573 1574 1575 1577 1578 1579 1580 1581 1582 1583
1517 1520 1523 1526 1529 1532 1534 1536 1538 1540 1542 1544 1546 1548 1550 1552 1554 1555 1556 1558 1560 1561 1563 1565 1566 1567 1569 1570 1572 1572 1573 1574 1574 1574 1575 1577 1578 1579 1580 1581 1582 1583 1584
1517 1520 1523 1526 1529 1532 1535 1537 1540 1542 1543 1545 1547 1549 1551 1553 1555 1556 1557 1559 1561 1563 1565 1566 1567 1569 1570 1572 1573 1574 1574 1575 1575 1576 1577 1578 1579 1580 1581 1582 1583 1584 1585
1516 1519 1522 1525 1529 1532 1535 1538 1541 1543 1544 1546 1547 1550 1552 1554 1555 1557 1559 1560 1562 1564 1566 1567 1569 1570 1571 1573 1574 1575 1575 1576 1576 1577 1578 1579 1580 1581 1582 1583 1584 1585 1586
1514 1518 1521 1524 1527 1531 1534 1537 1540 1543 1544 1546 1548 1550 1552 1554 1556 1557 1559 1561 1563 1565 1566 1568 1569 1570 1572 1573 1575 1575 1577 1577 1578 1577 1579 1580 1580 1581 1582 1583 1584 1585 1586
1512 1516 1519 1522 1526 1529 1533 1536 1539 1542 1544 1546 1547 1549 1552 1554 1555 1557 1560 1562 1563 1565 1566 1568 1569 1571 1572 1574 1575 1576 1577 1578 1579 1579 1579 1580 1581 1582 1583 1584 1585 1586 1586
1509 1513 1517 1521 1524 1527 1531 1535 1539 1541 1543 1545 1547 1548 1551 1553 1555 1557 1559 1561 1563 1565 1566 1568 1569 1571 1572 1573 1575 1576 1577 1578 1579 1579 1580 1580 1581 1582 1583 1584 1585 1585 1586
1507 1510 1514 1519 1522 1525 1530 1533 1537 1540 1542 1544 1546 1547 1549 1552 1554 1556 1559 1560 1562 1564 1566 1568 1569 1571 1572 1573 1574 1575 1576 1577 1578 1580 1580 1581 1581 1582 1583 1583 1584 1585 1585
1505 1508 1512 1516 1519 1523 1527 1531 1535 1538 1540 1543 1545 1546 1548 1550 1553 1555 1557 1559 1561 1564 1565 1567 1568 1570 1571 1573 1574 1575 1576 1577 1578 1579 1580 1581 1581 1582 1582 1583 1583 1584 1584
1502 1506 1509 1513 1516 1520 1524 1527 1531 1534 1537 1540 1543 1545 1546 1549 1551 1554 1556 1558 1560 1562 1564 1566 1567 1569 1570 1572 1573 1574 1575 1576 1577 1578 1579 1580 1581 1581 1582 1582 1582 1583 1583
1498 1502 1506 1510 1513 1516 1520 1525 1529 1532 1535 1538 1540 1542 1544 1547 1549 1552 1554 1555 1558 1560 1562 1564 1565 1567 1569 1570 1572 1573 1575 1577 1576 1577 1577 1578 1579 1580 1580 1581 1581 1581 1582
1495 1498 1502 1506 1510 1514 1518 1522 1527 1530 1533 1536 1538 1539 1542 1544 1546 1549 1551 1553 1555 1557 1559 1561 1563 1565 1567 1569 1570 1572 1573 1573 1574 1575 1576 1576 1577 1578 1578 1579 1580 1580 1580
1491 1495 1499 1503 1507 1511 1515 1519 1522 1525 1528 1531 1534 1537 1539 1541 1543 1546 1548 1550 1553 1555 1557 1558 1560 1563 1565 1566 1568 1569 1570 1571 1572 1573 1574 1574 1575 1576 1577 1577 1578 1578 1578
1489 1492 1496 1500 1504 1508 1512 1516 1520 1523 1526 1529 1531 1534 1536 1538 1540 1542 1544 1547 1549 1552 1554 1556 1558 1560 1561 1563 1565 1567 1568 1569 1570 1571 1571 1573 1573 1574 1574 1575 1576 1576 1576
1486 1490 1493 1497 1501 1505 1509 1513 1516 1519 1522 1525 1527 1530 1532 1534 1536 1539 1541 1543 1545 1548 1550 1552 1554 1556 1558 1560 1562 1564 1565 1566 1567 1569 1569 1570 1570 1571 1571 1572 1573 1573 1574